{"data":{"norad_id":66091,"intl_designator":"2025-236F","name":"STARLINK-35532","alt_names":[],"object_type":"PAYLOAD","status":"ACTIVE","operator":null,"country":"US","launch_date":"2025-10-19","launch_site_code":"AFWTR","launch_vehicle":null,"mission":null,"orbit_class":"UNKNOWN","rcs_meters":null,"size_class":null,"mass_kg":null,"dimensions":null,"purposes":["comms"],"wikipedia_slug":null,"has_3d_model":false,"image_url":null,"decayed_at":null,"tle_current":{"epoch":"2026-09-20T08:15:48.172320Z","epoch_age_seconds":116454,"freshness":"FRESH","line1":"1 66091U 25236F   26263.34430755  .00006772  00000+0  21141-3 0  9993","line2":"2 66091  53.1589 278.5441 0001582  78.5391 281.5789 15.34398296 52765","mean_motion":15.34398296,"eccentricity":0.0001582,"inclination_deg":53.1589,"raan_deg":278.5441,"arg_perigee_deg":78.5391,"mean_anomaly_deg":281.5789,"bstar":0.00021141,"rev_number":5276,"period_min":93.847862302371,"perigee_km":461.62608313166,"apogee_km":463.79052658612,"semimajor_km":6840.8453048589,"source":"CELESTRAK","updated_at":"2026-09-21T09:00:35.801155Z"}}}